Time,TemperatureF,DewpointF,PressureIn,WindDirection,WindDirectionDegrees,WindSpeedMPH,WindSpeedGustMPH,Humidity,HourlyPrecipIn,Conditions,Clouds,dailyrainin,SoftwareType,DateUTC
2013-02-14 00:05:00,27.7,26.0,30.42,WNW,294,0.0,-999.0,94,-99.99,,,0.00,weatherlink.com 1.10,2013-02-14 08:05:00,
2013-02-14 00:20:00,27.6,26.0,30.43,WNW,294,0.0,-999.0,94,-99.99,,,0.00,weatherlink.com 1.10,2013-02-14 08:20:00,
2013-02-14 00:35:00,26.8,25.0,30.44,WNW,294,0.0,-999.0,94,-99.99,,,0.00,weatherlink.com 1.10,2013-02-14 08:35:00,
2013-02-14 00:51:00,26.5,25.0,30.45,WNW,294,0.0,-999.0,94,-99.99,,,0.00,weatherlink.com 1.10,2013-02-14 08:51:00,
2013-02-14 01:06:00,26.6,25.0,30.45,WNW,294,0.0,-999.0,95,-99.99,,,0.00,weatherlink.com 1.10,2013-02-14 09:06:00,
2013-02-14 01:21:00,26.3,25.0,30.45,WNW,294,0.0,-999.0,95,-99.99,,,0.00,weatherlink.com 1.10,2013-02-14 09:21:00,
2013-02-14 01:36:00,26.0,25.0,30.46,WNW,294,0.0,-999.0,95,-99.99,,,0.00,weatherlink.com 1.10,2013-02-14 09:36:00,
2013-02-14 01:51:00,26.0,25.0,30.46,WNW,294,0.0,-999.0,95,-99.99,,,0.00,weatherlink.com 1.10,2013-02-14 09:51:00,
2013-02-14 02:06:00,25.8,25.0,30.46,WNW,294,0.0,-999.0,95,-99.99,,,0.00,weatherlink.com 1.10,2013-02-14 10:06:00,
2013-02-14 02:21:00,25.1,24.0,30.46,WNW,294,0.0,-999.0,95,-99.99,,,0.00,weatherlink.com 1.10,2013-02-14 10:21:00,
2013-02-14 02:36:00,24.5,23.0,30.46,WNW,294,0.0,-999.0,94,-99.99,,,0.00,weatherlink.com 1.10,2013-02-14 10:36:00,
2013-02-14 02:51:00,23.9,23.0,30.47,WNW,294,0.0,-999.0,95,-99.99,,,0.00,weatherlink.com 1.10,2013-02-14 10:51:00,
2013-02-14 03:06:00,23.4,22.0,30.47,WNW,294,0.0,-999.0,95,-99.99,,,0.00,weatherlink.com 1.10,2013-02-14 11:06:00,
2013-02-14 03:21:00,23.1,22.0,30.48,WNW,294,0.0,-999.0,95,-99.99,,,0.00,weatherlink.com 1.10,2013-02-14 11:21:00,
2013-02-14 03:36:00,22.9,22.0,30.49,WNW,294,0.0,-999.0,95,-99.99,,,0.00,weatherlink.com 1.10,2013-02-14 11:36:00,
2013-02-14 03:51:00,23.1,22.0,30.50,WNW,294,0.0,-999.0,95,-99.99,,,0.00,weatherlink.com 1.10,2013-02-14 11:51:00,
2013-02-14 04:06:00,22.7,22.0,30.50,WNW,294,0.0,-999.0,95,-99.99,,,0.00,weatherlink.com 1.10,2013-02-14 12:06:00,
2013-02-14 04:21:00,22.1,21.0,30.50,WNW,294,0.0,-999.0,95,-99.99,,,0.00,weatherlink.com 1.10,2013-02-14 12:21:00,
2013-02-14 04:36:00,21.2,20.0,30.50,WNW,294,0.0,-999.0,95,-99.99,,,0.00,weatherlink.com 1.10,2013-02-14 12:36:00,
2013-02-14 04:51:00,21.1,20.0,30.51,WNW,294,0.0,-999.0,95,-99.99,,,0.00,weatherlink.com 1.10,2013-02-14 12:51:00,
2013-02-14 05:06:00,21.2,20.0,30.52,WNW,294,0.0,-999.0,95,-99.99,,,0.00,weatherlink.com 1.10,2013-02-14 13:06:00,
2013-02-14 05:21:00,21.7,21.0,30.52,WNW,294,0.0,-999.0,95,-99.99,,,0.00,weatherlink.com 1.10,2013-02-14 13:21:00,
2013-02-14 05:36:00,21.8,21.0,30.52,WNW,294,0.0,-999.0,95,-99.99,,,0.00,weatherlink.com 1.10,2013-02-14 13:36:00,
2013-02-14 05:51:00,22.0,21.0,30.52,WNW,294,0.0,-999.0,95,-99.99,,,0.00,weatherlink.com 1.10,2013-02-14 13:51:00,
2013-02-14 06:06:00,21.8,21.0,30.52,WNW,294,0.0,-999.0,95,-99.99,,,0.00,weatherlink.com 1.10,2013-02-14 14:06:00,
2013-02-14 06:21:00,22.0,21.0,30.52,WNW,294,0.0,-999.0,95,-99.99,,,0.00,weatherlink.com 1.10,2013-02-14 14:21:00,
2013-02-14 06:36:00,22.4,21.0,30.53,WNW,294,0.0,-999.0,95,-99.99,,,0.00,weatherlink.com 1.10,2013-02-14 14:36:00,
2013-02-14 06:51:00,22.4,21.0,30.54,WNW,294,0.0,-999.0,94,-99.99,,,0.00,weatherlink.com 1.10,2013-02-14 14:51:00,
2013-02-14 07:07:00,22.4,21.0,30.54,WNW,294,0.0,-999.0,94,-99.99,,,0.00,weatherlink.com 1.10,2013-02-14 15:07:00,
2013-02-14 07:22:00,22.5,21.0,30.55,WNW,294,0.0,-999.0,94,-99.99,,,0.00,weatherlink.com 1.10,2013-02-14 15:22:00,
2013-02-14 07:37:00,23.0,22.0,30.55,WNW,294,0.0,-999.0,95,-99.99,,,0.00,weatherlink.com 1.10,2013-02-14 15:37:00,
2013-02-14 07:51:00,23.6,22.0,30.56,WNW,294,0.0,-999.0,95,-99.99,,,0.00,weatherlink.com 1.10,2013-02-14 15:51:00,
2013-02-14 08:06:00,24.0,23.0,30.56,WNW,294,0.0,-999.0,95,-99.99,,,0.00,weatherlink.com 1.10,2013-02-14 16:06:00,
2013-02-14 08:22:00,25.2,24.0,30.56,WNW,294,0.0,-999.0,96,-99.99,,,0.00,weatherlink.com 1.10,2013-02-14 16:22:00,
2013-02-14 08:36:00,25.7,25.0,30.57,WNW,294,0.0,-999.0,95,-99.99,,,0.00,weatherlink.com 1.10,2013-02-14 16:36:00,
2013-02-14 08:51:00,26.5,26.0,30.58,WNW,294,0.0,-999.0,96,-99.99,,,0.00,weatherlink.com 1.10,2013-02-14 16:51:00,
2013-02-14 09:07:00,27.1,26.0,30.58,WNW,294,0.0,-999.0,96,-99.99,,,0.00,weatherlink.com 1.10,2013-02-14 17:07:00,
2013-02-14 09:21:00,27.6,27.0,30.58,WNW,294,0.0,-999.0,96,-99.99,,,0.00,weatherlink.com 1.10,2013-02-14 17:21:00,
2013-02-14 09:37:00,28.6,27.0,30.58,WNW,294,0.0,-999.0,95,-99.99,,,0.00,weatherlink.com 1.10,2013-02-14 17:37:00,
2013-02-14 09:52:00,29.5,28.0,30.58,WNW,294,0.0,-999.0,95,-99.99,,,0.00,weatherlink.com 1.10,2013-02-14 17:52:00,
2013-02-14 10:07:00,31.0,29.0,30.58,WNW,294,0.0,-999.0,93,-99.99,,,0.00,weatherlink.com 1.10,2013-02-14 18:07:00,
2013-02-14 10:22:00,32.4,31.0,30.59,WNW,294,0.0,-999.0,93,-99.99,,,0.00,weatherlink.com 1.10,2013-02-14 18:22:00,
2013-02-14 10:37:00,33.7,31.0,30.59,WNW,294,0.0,-999.0,89,-99.99,,,0.00,weatherlink.com 1.10,2013-02-14 18:37:00,
2013-02-14 10:52:00,35.3,32.0,30.59,WNW,294,0.0,-999.0,87,-99.99,,,0.00,weatherlink.com 1.10,2013-02-14 18:52:00,
2013-02-14 11:07:00,38.7,32.0,30.59,WNW,294,0.0,-999.0,78,-99.99,,,0.00,weatherlink.com 1.10,2013-02-14 19:07:00,
2013-02-14 11:23:00,38.2,31.0,30.58,NW,326,1.0,-999.0,74,-99.99,,,0.00,weatherlink.com 1.10,2013-02-14 19:23:00,
2013-02-14 11:37:00,39.8,31.0,30.58,NNW,329,1.0,-999.0,72,-99.99,,,0.00,weatherlink.com 1.10,2013-02-14 19:37:00,
2013-02-14 11:52:00,39.5,32.0,30.57,East,92,2.0,-999.0,73,-99.99,,,0.00,weatherlink.com 1.10,2013-02-14 19:52:00,
2013-02-14 12:07:00,40.3,32.0,30.58,ESE,113,0.0,-999.0,71,-99.99,,,0.00,weatherlink.com 1.10,2013-02-14 20:07:00,
2013-02-14 12:22:00,39.3,30.0,30.58,West,279,3.0,-999.0,70,-99.99,,,0.00,weatherlink.com 1.10,2013-02-14 20:22:00,
2013-02-14 12:37:00,39.7,30.0,30.57,WSW,243,0.0,-999.0,68,-99.99,,,0.00,weatherlink.com 1.10,2013-02-14 20:37:00,
2013-02-14 12:52:00,39.0,30.0,30.57,WNW,290,2.0,-999.0,69,-99.99,,,0.00,weatherlink.com 1.10,2013-02-14 20:52:00,
2013-02-14 13:07:00,39.7,29.0,30.57,West,275,2.0,-999.0,67,-99.99,,,0.00,weatherlink.com 1.10,2013-02-14 21:07:00,
2013-02-14 13:22:00,40.3,30.0,30.57,WNW,299,4.0,-999.0,66,-99.99,,,0.00,weatherlink.com 1.10,2013-02-14 21:22:00,
2013-02-14 13:37:00,40.2,30.0,30.57,West,276,2.0,-999.0,66,-99.99,,,0.00,weatherlink.com 1.10,2013-02-14 21:37:00,
2013-02-14 13:52:00,40.6,30.0,30.57,WNW,290,2.0,-999.0,65,-99.99,,,0.00,weatherlink.com 1.10,2013-02-14 21:52:00,
2013-02-14 14:07:00,41.6,30.0,30.57,SSW,206,1.0,-999.0,63,-99.99,,,0.00,weatherlink.com 1.10,2013-02-14 22:07:00,
2013-02-14 14:22:00,40.4,30.0,30.57,NW,310,3.0,-999.0,66,-99.99,,,0.00,weatherlink.com 1.10,2013-02-14 22:22:00,
2013-02-14 14:37:00,41.0,30.0,30.57,WNW,284,2.0,-999.0,64,-99.99,,,0.00,weatherlink.com 1.10,2013-02-14 22:37:00,
2013-02-14 14:52:00,40.7,30.0,30.57,West,276,1.0,-999.0,67,-99.99,,,0.00,weatherlink.com 1.10,2013-02-14 22:52:00,
2013-02-14 15:07:00,40.3,30.0,30.57,WNW,290,0.0,-999.0,67,-99.99,,,0.00,weatherlink.com 1.10,2013-02-14 23:07:00,
2013-02-14 15:22:00,40.2,30.0,30.57,WNW,290,0.0,-999.0,67,-99.99,,,0.00,weatherlink.com 1.10,2013-02-14 23:22:00,
2013-02-14 15:37:00,40.2,30.0,30.57,WNW,283,2.0,-999.0,67,-99.99,,,0.00,weatherlink.com 1.10,2013-02-14 23:37:00,
2013-02-14 15:52:00,39.7,31.0,30.57,West,278,3.0,-999.0,70,-99.99,,,0.00,weatherlink.com 1.10,2013-02-14 23:52:00,
2013-02-14 16:08:00,39.5,30.0,30.57,NW,312,1.0,-999.0,70,-99.99,,,0.00,weatherlink.com 1.10,2013-02-15 00:08:00,
2013-02-14 16:22:00,39.5,30.0,30.58,NW,312,0.0,-999.0,70,-99.99,,,0.00,weatherlink.com 1.10,2013-02-15 00:22:00,
2013-02-14 16:52:00,38.9,31.0,30.58,NW,312,0.0,-999.0,72,-99.99,,,0.00,weatherlink.com 1.10,2013-02-15 00:52:00,
2013-02-14 17:07:00,38.5,31.0,30.58,NW,312,0.0,-999.0,74,-99.99,,,0.00,weatherlink.com 1.10,2013-02-15 01:07:00,
2013-02-14 17:22:00,38.3,31.0,30.58,NW,312,0.0,-999.0,75,-99.99,,,0.00,weatherlink.com 1.10,2013-02-15 01:22:00,
2013-02-14 17:37:00,38.5,31.0,30.58,West,259,0.0,-999.0,75,-99.99,,,0.00,weatherlink.com 1.10,2013-02-15 01:37:00,
2013-02-14 17:52:00,38.2,32.0,30.59,West,267,0.0,-999.0,77,-99.99,,,0.00,weatherlink.com 1.10,2013-02-15 01:52:00,
2013-02-14 18:07:00,37.9,31.0,30.59,West,267,0.0,-999.0,77,-99.99,,,0.00,weatherlink.com 1.10,2013-02-15 02:07:00,
2013-02-14 18:22:00,37.8,32.0,30.59,West,267,0.0,-999.0,78,-99.99,,,0.00,weatherlink.com 1.10,2013-02-15 02:22:00,
2013-02-14 18:37:00,37.5,32.0,30.59,West,267,0.0,-999.0,79,-99.99,,,0.00,weatherlink.com 1.10,2013-02-15 02:37:00,
2013-02-14 18:52:00,37.2,31.0,30.59,West,267,0.0,-999.0,79,-99.99,,,0.00,weatherlink.com 1.10,2013-02-15 02:52:00,
2013-02-14 19:08:00,36.8,31.0,30.59,West,267,0.0,-999.0,80,-99.99,,,0.00,weatherlink.com 1.10,2013-02-15 03:08:00,
2013-02-14 19:22:00,36.5,32.0,30.59,SSW,198,0.0,-999.0,82,-99.99,,,0.00,weatherlink.com 1.10,2013-02-15 03:22:00,
2013-02-14 19:37:00,36.1,31.0,30.59,SSW,198,0.0,-999.0,83,-99.99,,,0.00,weatherlink.com 1.10,2013-02-15 03:37:00,
2013-02-14 19:53:00,36.0,31.0,30.60,South,191,0.0,-999.0,83,-99.99,,,0.00,weatherlink.com 1.10,2013-02-15 03:53:00,
2013-02-14 20:07:00,36.1,31.0,30.59,South,191,0.0,-999.0,83,-99.99,,,0.00,weatherlink.com 1.10,2013-02-15 04:07:00,
2013-02-14 20:22:00,35.4,31.0,30.60,South,191,0.0,-999.0,85,-99.99,,,0.00,weatherlink.com 1.10,2013-02-15 04:22:00,
2013-02-14 20:37:00,35.0,31.0,30.60,South,191,0.0,-999.0,86,-99.99,,,0.00,weatherlink.com 1.10,2013-02-15 04:37:00,
2013-02-14 20:52:00,34.6,31.0,30.60,SSW,194,0.0,-999.0,86,-99.99,,,0.00,weatherlink.com 1.10,2013-02-15 04:52:00,
2013-02-14 21:08:00,34.8,31.0,30.61,SSW,194,0.0,-999.0,87,-99.99,,,0.00,weatherlink.com 1.10,2013-02-15 05:08:00,
2013-02-14 21:23:00,34.8,31.0,30.61,SSW,194,0.0,-999.0,87,-99.99,,,0.00,weatherlink.com 1.10,2013-02-15 05:23:00,
2013-02-14 21:38:00,34.7,31.0,30.62,SSW,194,0.0,-999.0,87,-99.99,,,0.00,weatherlink.com 1.10,2013-02-15 05:38:00,
2013-02-14 21:53:00,34.5,31.0,30.62,SSW,194,0.0,-999.0,87,-99.99,,,0.00,weatherlink.com 1.10,2013-02-15 05:53:00,
2013-02-14 22:08:00,34.4,31.0,30.62,SSW,194,0.0,-999.0,87,-99.99,,,0.00,weatherlink.com 1.10,2013-02-15 06:08:00,
2013-02-14 22:23:00,34.1,31.0,30.63,SSW,194,0.0,-999.0,88,-99.99,,,0.00,weatherlink.com 1.10,2013-02-15 06:23:00,
2013-02-14 22:38:00,34.1,31.0,30.63,SSW,194,0.0,-999.0,88,-99.99,,,0.00,weatherlink.com 1.10,2013-02-15 06:38:00,
2013-02-14 22:53:00,33.7,31.0,30.63,SSW,194,0.0,-999.0,89,-99.99,,,0.00,weatherlink.com 1.10,2013-02-15 06:53:00,
2013-02-14 23:08:00,33.9,31.0,30.64,SSW,194,0.0,-999.0,90,-99.99,,,0.00,weatherlink.com 1.10,2013-02-15 07:08:00,
2013-02-14 23:23:00,34.1,32.0,30.64,SSW,194,0.0,-999.0,90,-99.99,,,0.00,weatherlink.com 1.10,2013-02-15 07:23:00,
2013-02-14 23:38:00,34.1,32.0,30.64,SSW,194,0.0,-999.0,90,-99.99,,,0.00,weatherlink.com 1.10,2013-02-15 07:38:00,
2013-02-14 23:53:00,33.9,31.0,30.63,SSW,194,0.0,-999.0,90,-99.99,,,0.00,weatherlink.com 1.10,2013-02-15 07:53:00,